Year,Month,Day,Hour,Minute,Value (Times are PST for windspeed in km/hr)
2015,06,12,00,00,17.10
2015,06,12,00,01,13.10
2015,06,12,00,02,12.10
2015,06,12,00,03,14.00
2015,06,12,00,04,11.80
2015,06,12,00,05,10.80
2015,06,12,00,06,12.20
2015,06,12,00,07,12.30
2015,06,12,00,08,16.90
2015,06,12,00,09,17.90
2015,06,12,00,10,15.00
2015,06,12,00,11,17.60
2015,06,12,00,12,18.60
2015,06,12,00,13,12.80
2015,06,12,00,14,21.00
2015,06,12,00,15,17.60
2015,06,12,00,16,12.00
2015,06,12,00,17,17.10
2015,06,12,00,18,14.80
2015,06,12,00,19,14.80
2015,06,12,00,20,11.70
2015,06,12,00,21,14.60
2015,06,12,00,22,16.40
2015,06,12,00,23,11.90
2015,06,12,00,24,11.90
2015,06,12,00,25,15.70
2015,06,12,00,26,11.10
2015,06,12,00,27,14.60
2015,06,12,00,28,16.20
2015,06,12,00,29,11.10
2015,06,12,00,30,14.10
2015,06,12,00,31,15.70
2015,06,12,00,32,10.60
2015,06,12,00,33,15.80
2015,06,12,00,34,12.20
2015,06,12,00,35,8.60
2015,06,12,00,36,9.70
2015,06,12,00,37,13.50
2015,06,12,00,38,16.10
2015,06,12,00,39,14.60
2015,06,12,00,40,14.20
2015,06,12,00,41,16.70
2015,06,12,00,42,12.00
2015,06,12,00,43,10.60
2015,06,12,00,44,8.10
2015,06,12,00,45,11.30
2015,06,12,00,46,10.10
2015,06,12,00,47,18.80
2015,06,12,00,48,15.10
2015,06,12,00,49,15.40
2015,06,12,00,50,13.10
2015,06,12,00,51,12.30
2015,06,12,00,52,13.50
2015,06,12,00,53,13.80
2015,06,12,00,54,11.30
2015,06,12,00,55,16.10
2015,06,12,00,56,17.20
2015,06,12,00,57,16.10
2015,06,12,00,58,15.20
2015,06,12,00,59,11.30
2015,06,12,01,00,13.90
2015,06,12,01,01,8.30
2015,06,12,01,02,12.50
2015,06,12,01,03,14.30
2015,06,12,01,04,9.20
2015,06,12,01,05,17.00
2015,06,12,01,06,19.40
2015,06,12,01,07,15.30
2015,06,12,01,08,12.40
2015,06,12,01,09,10.90
2015,06,12,01,10,14.40
2015,06,12,01,11,14.60
2015,06,12,01,12,13.60
2015,06,12,01,13,15.40
2015,06,12,01,14,12.10
2015,06,12,01,15,11.00
2015,06,12,01,16,10.50
2015,06,12,01,17,15.20
2015,06,12,01,18,15.40
2015,06,12,01,19,18.80
2015,06,12,01,20,12.20
2015,06,12,01,21,16.80
2015,06,12,01,22,12.70
2015,06,12,01,23,10.80
2015,06,12,01,24,12.40
2015,06,12,01,25,17.20
2015,06,12,01,26,16.70
2015,06,12,01,27,13.20
2015,06,12,01,28,8.90
2015,06,12,01,29,17.30
2015,06,12,01,30,7.40
2015,06,12,01,31,15.70
2015,06,12,01,32,13.00
2015,06,12,01,33,9.40
2015,06,12,01,34,7.30
2015,06,12,01,35,11.00
2015,06,12,01,36,13.10
2015,06,12,01,37,10.20
2015,06,12,01,38,13.00
2015,06,12,01,39,19.50
2015,06,12,01,40,18.90
2015,06,12,01,41,15.10
2015,06,12,01,42,12.00
2015,06,12,01,43,12.90
2015,06,12,01,44,11.10
2015,06,12,01,45,10.20
2015,06,12,01,46,14.60
2015,06,12,01,47,16.70
2015,06,12,01,48,16.60
2015,06,12,01,49,8.30
2015,06,12,01,50,13.90
2015,06,12,01,51,11.50
2015,06,12,01,52,11.30
2015,06,12,01,53,13.50
2015,06,12,01,54,12.90
2015,06,12,01,55,15.10
2015,06,12,01,56,11.80
2015,06,12,01,57,14.70
2015,06,12,01,58,14.00
2015,06,12,01,59,14.80
2015,06,12,02,00,13.20
2015,06,12,02,01,12.70
2015,06,12,02,02,9.30
2015,06,12,02,03,16.00
2015,06,12,02,04,17.30
2015,06,12,02,05,9.90
2015,06,12,02,06,11.80
2015,06,12,02,07,16.10
2015,06,12,02,08,10.90
2015,06,12,02,09,13.20
2015,06,12,02,10,17.40
2015,06,12,02,11,13.60
2015,06,12,02,12,12.90
2015,06,12,02,13,9.70
2015,06,12,02,14,9.00
2015,06,12,02,15,9.20
2015,06,12,02,16,11.60
2015,06,12,02,17,10.00
2015,06,12,02,18,10.10
2015,06,12,02,19,10.00
2015,06,12,02,20,14.50
2015,06,12,02,21,8.60
2015,06,12,02,22,11.90
2015,06,12,02,23,10.00
2015,06,12,02,24,10.30
2015,06,12,02,25,15.50
2015,06,12,02,26,17.60
2015,06,12,02,27,11.10
2015,06,12,02,28,16.90
2015,06,12,02,29,16.50
2015,06,12,02,30,17.60
2015,06,12,02,31,15.10
2015,06,12,02,32,11.60
2015,06,12,02,33,16.10
2015,06,12,02,34,22.10
2015,06,12,02,35,18.30
2015,06,12,02,36,14.50
2015,06,12,02,37,19.50
2015,06,12,02,38,15.80
2015,06,12,02,39,15.70
2015,06,12,02,40,20.00
2015,06,12,02,41,17.80
2015,06,12,02,42,18.60
2015,06,12,02,43,16.70
2015,06,12,02,44,16.30
2015,06,12,02,45,18.30
2015,06,12,02,46,18.80
2015,06,12,02,47,20.40
2015,06,12,02,48,13.20
2015,06,12,02,49,16.30
2015,06,12,02,50,19.80
2015,06,12,02,51,15.00
2015,06,12,02,52,16.60
2015,06,12,02,53,18.30
2015,06,12,02,54,15.70
2015,06,12,02,55,20.20
2015,06,12,02,56,15.90
2015,06,12,02,57,15.40
2015,06,12,02,58,17.50
2015,06,12,02,59,15.50
2015,06,12,03,00,14.90
2015,06,12,03,01,15.20
2015,06,12,03,02,18.20
2015,06,12,03,03,14.30
2015,06,12,03,04,19.40
2015,06,12,03,05,16.00
2015,06,12,03,06,15.10
2015,06,12,03,07,19.10
2015,06,12,03,08,16.00
2015,06,12,03,09,13.40
2015,06,12,03,10,15.50
2015,06,12,03,11,9.70
2015,06,12,03,12,12.90
2015,06,12,03,13,14.60
2015,06,12,03,14,17.20
2015,06,12,03,15,12.60
2015,06,12,03,16,13.20
2015,06,12,03,17,17.50
2015,06,12,03,18,14.60
2015,06,12,03,19,13.60
2015,06,12,03,20,14.40
2015,06,12,03,21,16.40
2015,06,12,03,22,13.70
2015,06,12,03,23,15.20
2015,06,12,03,24,11.20
2015,06,12,03,25,15.10
2015,06,12,03,26,14.60
2015,06,12,03,27,13.50
2015,06,12,03,28,9.50
2015,06,12,03,29,12.70
2015,06,12,03,30,11.90
2015,06,12,03,31,13.10
2015,06,12,03,32,17.70
2015,06,12,03,33,12.90
2015,06,12,03,34,15.30
2015,06,12,03,35,13.80
2015,06,12,03,36,17.30
2015,06,12,03,37,16.20
2015,06,12,03,38,13.20
2015,06,12,03,39,11.40
2015,06,12,03,40,18.40
2015,06,12,03,41,13.90
2015,06,12,03,42,9.90
2015,06,12,03,43,10.60
2015,06,12,03,44,10.40
2015,06,12,03,45,11.30
2015,06,12,03,46,12.90
2015,06,12,03,47,12.50
2015,06,12,03,48,11.60
2015,06,12,03,49,12.40
2015,06,12,03,50,11.80
2015,06,12,03,51,8.60
2015,06,12,03,52,7.90
2015,06,12,03,53,12.60
2015,06,12,03,54,9.40
2015,06,12,03,55,7.90
2015,06,12,03,56,8.60
2015,06,12,03,57,12.00
2015,06,12,03,58,9.70
2015,06,12,03,59,9.70
2015,06,12,04,00,14.10
2015,06,12,04,01,12.00
2015,06,12,04,02,10.30
2015,06,12,04,03,14.40
2015,06,12,04,04,8.90
2015,06,12,04,05,8.50
2015,06,12,04,06,9.80
2015,06,12,04,07,13.40
2015,06,12,04,08,12.00
2015,06,12,04,09,11.50
2015,06,12,04,10,9.20
2015,06,12,04,11,12.40
2015,06,12,04,12,9.50
2015,06,12,04,13,12.80
2015,06,12,04,14,11.10
2015,06,12,04,15,9.90
2015,06,12,04,16,11.30
2015,06,12,04,17,12.40
2015,06,12,04,18,11.80
2015,06,12,04,19,11.50
2015,06,12,04,20,11.80
2015,06,12,04,21,12.30
2015,06,12,04,22,10.40
2015,06,12,04,23,9.00
2015,06,12,04,24,8.30
2015,06,12,04,25,7.00
2015,06,12,04,26,11.30
2015,06,12,04,27,6.40
2015,06,12,04,28,10.90
2015,06,12,04,29,8.70
2015,06,12,04,30,14.60
2015,06,12,04,31,10.80
2015,06,12,04,32,9.40
2015,06,12,04,33,9.90
2015,06,12,04,34,8.30
2015,06,12,04,35,8.10
2015,06,12,04,36,5.20
2015,06,12,04,37,6.30
2015,06,12,04,38,8.60
2015,06,12,04,39,9.40
2015,06,12,04,40,9.80
2015,06,12,04,41,11.60
2015,06,12,04,42,15.10
2015,06,12,04,43,9.80
2015,06,12,04,44,13.40
2015,06,12,04,45,10.30
2015,06,12,04,46,13.90
2015,06,12,04,47,11.60
2015,06,12,04,48,11.80
2015,06,12,04,49,10.50
2015,06,12,04,50,9.00
2015,06,12,04,51,7.40
2015,06,12,04,52,7.50
2015,06,12,04,53,6.70
2015,06,12,04,54,9.90
2015,06,12,04,55,8.80
2015,06,12,04,56,11.30
2015,06,12,04,57,8.90
2015,06,12,04,58,9.10
2015,06,12,04,59,6.60
2015,06,12,05,00,8.30
2015,06,12,05,01,7.80
2015,06,12,05,02,10.50
2015,06,12,05,03,9.20
2015,06,12,05,04,9.40
2015,06,12,05,05,10.00
2015,06,12,05,06,10.70
2015,06,12,05,07,11.40
2015,06,12,05,08,6.40
2015,06,12,05,09,5.30
2015,06,12,05,10,5.60
2015,06,12,05,11,5.30
2015,06,12,05,12,8.80
2015,06,12,05,13,7.50
2015,06,12,05,14,9.10
2015,06,12,05,15,8.40
2015,06,12,05,16,8.30
2015,06,12,05,17,9.70
2015,06,12,05,18,11.10
2015,06,12,05,19,8.40
2015,06,12,05,20,8.10
2015,06,12,05,21,10.40
2015,06,12,05,22,9.20
2015,06,12,05,23,4.90
2015,06,12,05,24,3.40
2015,06,12,05,25,6.10
2015,06,12,05,26,8.90
2015,06,12,05,27,5.60
2015,06,12,05,28,7.00
2015,06,12,05,29,8.70
2015,06,12,05,30,6.90
2015,06,12,05,31,10.20
2015,06,12,05,32,3.90
2015,06,12,05,33,5.50
2015,06,12,05,34,3.00
2015,06,12,05,35,4.90
2015,06,12,05,36,4.60
2015,06,12,05,37,4.20
2015,06,12,05,38,6.40
2015,06,12,05,39,5.90
2015,06,12,05,40,5.70
2015,06,12,05,41,7.20
2015,06,12,05,42,5.80
2015,06,12,05,43,7.10
2015,06,12,05,44,6.60
2015,06,12,05,45,7.00
2015,06,12,05,46,6.40
2015,06,12,05,47,8.50
2015,06,12,05,48,8.10
2015,06,12,05,49,8.00
2015,06,12,05,50,8.90
2015,06,12,05,51,6.40
2015,06,12,05,52,5.20
2015,06,12,05,53,7.00
2015,06,12,05,54,6.50
2015,06,12,05,55,5.90
2015,06,12,05,56,4.80
2015,06,12,05,57,6.10
2015,06,12,05,58,5.30
2015,06,12,05,59,5.80
2015,06,12,06,00,6.30
2015,06,12,06,01,7.10
2015,06,12,06,02,5.40
2015,06,12,06,03,7.00
2015,06,12,06,04,5.70
2015,06,12,06,05,6.30
2015,06,12,06,06,6.90
2015,06,12,06,07,4.80
2015,06,12,06,08,9.10
2015,06,12,06,09,6.70
2015,06,12,06,10,4.80
2015,06,12,06,11,5.40
2015,06,12,06,12,4.40
2015,06,12,06,13,4.10
2015,06,12,06,14,6.00
2015,06,12,06,15,5.80
2015,06,12,06,16,5.80
2015,06,12,06,17,7.10
2015,06,12,06,18,5.90
2015,06,12,06,19,4.50
2015,06,12,06,20,4.10
2015,06,12,06,21,1.80
2015,06,12,06,22,4.30
2015,06,12,06,23,3.40
2015,06,12,06,24,3.70
2015,06,12,06,25,4.70
2015,06,12,06,26,4.40
2015,06,12,06,27,1.60
2015,06,12,06,28,0.40
2015,06,12,06,29,5.30
2015,06,12,06,30,4.10
2015,06,12,06,31,2.50
2015,06,12,06,32,0.80
2015,06,12,06,33,1.10
2015,06,12,06,34,3.10
2015,06,12,06,35,3.40
2015,06,12,06,36,5.60
2015,06,12,06,37,1.90
2015,06,12,06,38,2.60
2015,06,12,06,39,4.90
2015,06,12,06,40,3.10
2015,06,12,06,41,4.50
2015,06,12,06,42,5.10
2015,06,12,06,43,4.30
2015,06,12,06,44,2.30
2015,06,12,06,45,2.10
2015,06,12,06,46,1.50
2015,06,12,06,47,4.20
2015,06,12,06,48,2.20
2015,06,12,06,49,3.70
2015,06,12,06,50,4.00
2015,06,12,06,51,6.20
2015,06,12,06,52,4.30
2015,06,12,06,53,2.60
2015,06,12,06,54,2.10
2015,06,12,06,55,3.40
2015,06,12,06,56,4.50
2015,06,12,06,57,3.10
2015,06,12,06,58,5.20
2015,06,12,06,59,5.00
2015,06,12,07,00,6.90
2015,06,12,07,01,6.50
2015,06,12,07,02,6.60
2015,06,12,07,03,4.60
2015,06,12,07,04,5.50
2015,06,12,07,05,5.90
2015,06,12,07,06,3.90
2015,06,12,07,07,3.60
2015,06,12,07,08,3.40
2015,06,12,07,09,5.60
2015,06,12,07,10,6.10
2015,06,12,07,11,5.70
2015,06,12,07,12,6.10
2015,06,12,07,13,4.90
2015,06,12,07,14,4.80
2015,06,12,07,15,7.40
2015,06,12,07,16,3.80
2015,06,12,07,17,0.40
2015,06,12,07,18,3.40
2015,06,12,07,19,3.40
2015,06,12,07,20,3.70
2015,06,12,07,21,6.90
2015,06,12,07,22,7.80
2015,06,12,07,23,8.30
2015,06,12,07,24,4.70
2015,06,12,07,25,2.10
2015,06,12,07,26,3.40
2015,06,12,07,27,0.80
2015,06,12,07,28,5.20
2015,06,12,07,29,6.30
2015,06,12,07,30,4.10
2015,06,12,07,31,7.30
2015,06,12,07,32,6.90
2015,06,12,07,33,7.80
2015,06,12,07,34,3.90
2015,06,12,07,35,8.10
2015,06,12,07,36,4.70
2015,06,12,07,37,5.30
2015,06,12,07,38,4.50
2015,06,12,07,39,4.60
2015,06,12,07,40,5.10
2015,06,12,07,41,5.00
2015,06,12,07,42,3.00
2015,06,12,07,43,4.00
2015,06,12,07,44,8.70
2015,06,12,07,45,10.40
2015,06,12,07,46,9.70
2015,06,12,07,47,6.40
2015,06,12,07,48,7.80
2015,06,12,07,49,6.00
2015,06,12,07,50,4.20
2015,06,12,07,51,7.70
2015,06,12,07,52,6.20
2015,06,12,07,53,5.20
2015,06,12,07,54,5.80
2015,06,12,07,55,2.60
2015,06,12,07,56,6.80
2015,06,12,07,57,5.70
2015,06,12,07,58,8.00
2015,06,12,07,59,8.40
2015,06,12,08,00,8.00
2015,06,12,08,01,9.70
2015,06,12,08,02,5.60
2015,06,12,08,03,4.50
2015,06,12,08,04,1.80
2015,06,12,08,05,2.20
2015,06,12,08,06,4.20
2015,06,12,08,07,6.70
2015,06,12,08,08,4.20
2015,06,12,08,09,7.00
2015,06,12,08,10,6.50
2015,06,12,08,11,5.60
2015,06,12,08,12,2.40
2015,06,12,08,13,3.80
2015,06,12,08,14,5.10
2015,06,12,08,15,6.30
2015,06,12,08,16,8.60
2015,06,12,08,17,10.40
2015,06,12,08,18,7.10
2015,06,12,08,19,6.90
2015,06,12,08,20,7.20
2015,06,12,08,21,10.40
2015,06,12,08,22,8.60
2015,06,12,08,23,4.30
2015,06,12,08,24,10.40
2015,06,12,08,25,9.20
2015,06,12,08,26,5.60
2015,06,12,08,27,6.70
2015,06,12,08,28,6.90
2015,06,12,08,29,6.40
2015,06,12,08,30,4.40
2015,06,12,08,31,5.60
2015,06,12,08,32,6.50
2015,06,12,08,33,4.20
2015,06,12,08,34,2.40
2015,06,12,08,35,5.20
2015,06,12,08,36,9.50
2015,06,12,08,37,5.60
2015,06,12,08,38,6.20
2015,06,12,08,39,6.70
2015,06,12,08,40,8.00
2015,06,12,08,41,8.70
2015,06,12,08,42,8.20
2015,06,12,08,43,9.30
2015,06,12,08,44,10.50
2015,06,12,08,45,9.70
2015,06,12,08,46,9.90
2015,06,12,08,47,12.20
2015,06,12,08,48,8.00
2015,06,12,08,49,10.20
2015,06,12,08,50,9.00
2015,06,12,08,51,7.60
2015,06,12,08,52,11.70
2015,06,12,08,53,8.80
2015,06,12,08,54,13.10
2015,06,12,08,55,7.20
2015,06,12,08,56,8.90
2015,06,12,08,57,7.00
2015,06,12,08,58,9.00
2015,06,12,08,59,10.20
2015,06,12,09,00,12.90
2015,06,12,09,01,10.50
2015,06,12,09,02,10.10
2015,06,12,09,03,8.30
2015,06,12,09,04,8.50
2015,06,12,09,05,11.60
2015,06,12,09,06,9.00
2015,06,12,09,07,8.30
2015,06,12,09,08,11.70
2015,06,12,09,09,11.20
2015,06,12,09,10,14.20
2015,06,12,09,11,11.80
2015,06,12,09,12,7.60
2015,06,12,09,13,11.00
2015,06,12,09,14,12.80
2015,06,12,09,15,9.30
2015,06,12,09,16,7.60
2015,06,12,09,17,9.30
2015,06,12,09,18,10.00
2015,06,12,09,19,6.00
2015,06,12,09,20,8.60
2015,06,12,09,21,8.90
2015,06,12,09,22,10.80
2015,06,12,09,23,7.70
2015,06,12,09,24,8.70
2015,06,12,09,25,8.40
2015,06,12,09,26,12.10
2015,06,12,09,27,11.30
2015,06,12,09,28,11.20
2015,06,12,09,29,8.90
2015,06,12,09,30,10.50
2015,06,12,09,31,9.70
2015,06,12,09,32,9.40
2015,06,12,09,33,8.20
2015,06,12,09,34,8.10
2015,06,12,09,35,8.50
2015,06,12,09,36,9.40
2015,06,12,09,37,9.90
2015,06,12,09,38,12.10
2015,06,12,09,39,7.70
2015,06,12,09,40,10.60
2015,06,12,09,41,8.30
2015,06,12,09,42,10.80
2015,06,12,09,43,8.50
2015,06,12,09,44,12.00
2015,06,12,09,45,13.10
2015,06,12,09,46,9.00
2015,06,12,09,47,11.10
2015,06,12,09,48,8.20
2015,06,12,09,49,7.10
2015,06,12,09,50,9.60
2015,06,12,09,51,7.80
2015,06,12,09,52,9.90
2015,06,12,09,53,8.50
2015,06,12,09,54,9.70
2015,06,12,09,55,10.70
2015,06,12,09,56,14.30
2015,06,12,09,57,11.20
2015,06,12,09,58,8.80
2015,06,12,09,59,8.30
2015,06,12,10,00,6.70
2015,06,12,10,01,11.00
2015,06,12,10,02,9.30
2015,06,12,10,03,10.80
2015,06,12,10,04,11.60
2015,06,12,10,05,11.10
2015,06,12,10,06,8.60
2015,06,12,10,07,10.00
2015,06,12,10,08,11.00
2015,06,12,10,09,11.20
2015,06,12,10,10,10.90
2015,06,12,10,11,9.40
2015,06,12,10,12,9.00
2015,06,12,10,13,9.50
2015,06,12,10,14,14.10
2015,06,12,10,15,12.00
2015,06,12,10,16,10.80
2015,06,12,10,17,10.00
2015,06,12,10,18,13.00
2015,06,12,10,19,8.60
2015,06,12,10,20,9.00
2015,06,12,10,21,7.80
2015,06,12,10,22,7.60
2015,06,12,10,23,8.50
2015,06,12,10,24,9.70
2015,06,12,10,25,8.80
2015,06,12,10,26,8.90
2015,06,12,10,27,7.30
2015,06,12,10,28,9.90
2015,06,12,10,29,7.50
2015,06,12,10,30,15.20
2015,06,12,10,31,5.30
2015,06,12,10,32,6.40
2015,06,12,10,33,5.10
2015,06,12,10,34,4.80
2015,06,12,10,35,10.10
2015,06,12,10,36,10.10
2015,06,12,10,37,9.20
2015,06,12,10,38,11.20
2015,06,12,10,39,9.60
2015,06,12,10,40,11.60
2015,06,12,10,41,8.30
2015,06,12,10,42,10.80
2015,06,12,10,43,7.40
2015,06,12,10,44,6.80
2015,06,12,10,45,5.80
2015,06,12,10,46,3.40
2015,06,12,10,47,6.20
2015,06,12,10,48,8.40
2015,06,12,10,49,5.80
2015,06,12,10,50,11.10
2015,06,12,10,51,10.30
2015,06,12,10,52,7.70
2015,06,12,10,53,6.00
2015,06,12,10,54,5.60
2015,06,12,10,55,9.80
2015,06,12,10,56,6.00
2015,06,12,10,57,9.80
2015,06,12,10,58,7.00
2015,06,12,10,59,7.70
2015,06,12,11,00,7.50
2015,06,12,11,01,5.50
2015,06,12,11,02,7.50
2015,06,12,11,03,12.40
2015,06,12,11,04,6.30
2015,06,12,11,05,8.40
2015,06,12,11,06,7.20
2015,06,12,11,07,7.10
2015,06,12,11,08,5.40
2015,06,12,11,09,5.30
2015,06,12,11,10,10.40
2015,06,12,11,11,5.60
2015,06,12,11,12,5.40
2015,06,12,11,13,10.50
2015,06,12,11,14,10.50
2015,06,12,11,15,10.70
2015,06,12,11,16,7.30
2015,06,12,11,17,6.10
2015,06,12,11,18,7.50
2015,06,12,11,19,9.20
2015,06,12,11,20,11.30
2015,06,12,11,21,7.30
2015,06,12,11,22,7.10
2015,06,12,11,23,5.50
2015,06,12,11,24,5.00
2015,06,12,11,25,8.90
2015,06,12,11,26,9.00
2015,06,12,11,27,6.20
2015,06,12,11,28,8.80
2015,06,12,11,29,8.60
2015,06,12,11,30,11.70
2015,06,12,11,31,7.10
2015,06,12,11,32,9.10
2015,06,12,11,33,8.00
2015,06,12,11,34,5.40
2015,06,12,11,35,7.00
2015,06,12,11,36,7.00
2015,06,12,11,37,9.10
2015,06,12,11,38,7.40
2015,06,12,11,39,5.00
2015,06,12,11,40,3.90
2015,06,12,11,41,7.10
2015,06,12,11,42,9.00
2015,06,12,11,43,11.10
2015,06,12,11,44,9.40
2015,06,12,11,45,9.20
2015,06,12,11,46,11.40
2015,06,12,11,47,5.30
2015,06,12,11,48,10.60
2015,06,12,11,49,5.00
2015,06,12,11,50,7.70
2015,06,12,11,51,6.20
2015,06,12,11,52,8.10
2015,06,12,11,53,8.60
2015,06,12,11,54,10.20
2015,06,12,11,55,8.50
2015,06,12,11,56,7.70
2015,06,12,11,57,7.80
2015,06,12,11,58,5.00
2015,06,12,11,59,6.00
2015,06,12,12,00,5.40
2015,06,12,12,01,6.70
2015,06,12,12,02,7.30
2015,06,12,12,03,8.80
2015,06,12,12,04,7.80
2015,06,12,12,05,7.40
2015,06,12,12,06,6.60
2015,06,12,12,07,6.50
2015,06,12,12,08,10.10
2015,06,12,12,09,7.60
2015,06,12,12,10,9.70
2015,06,12,12,11,8.60
2015,06,12,12,12,7.40
2015,06,12,12,13,11.20
2015,06,12,12,14,7.10
2015,06,12,12,15,2.90
2015,06,12,12,16,3.40
2015,06,12,12,17,2.80
2015,06,12,12,18,5.80
2015,06,12,12,19,9.10
2015,06,12,12,20,6.40
2015,06,12,12,21,6.10
2015,06,12,12,22,3.90
2015,06,12,12,23,9.20
2015,06,12,12,24,5.40
2015,06,12,12,25,7.10
2015,06,12,12,26,6.00
2015,06,12,12,27,11.40
2015,06,12,12,28,7.30
2015,06,12,12,29,8.50
2015,06,12,12,30,10.50
2015,06,12,12,31,3.70
2015,06,12,12,32,7.30
2015,06,12,12,33,8.90
2015,06,12,12,34,3.50
2015,06,12,12,35,8.50
2015,06,12,12,36,8.60
2015,06,12,12,37,8.00
2015,06,12,12,38,6.50
2015,06,12,12,39,9.30
2015,06,12,12,40,4.60
2015,06,12,12,41,10.50
2015,06,12,12,42,9.60
2015,06,12,12,43,7.80
2015,06,12,12,44,4.40
2015,06,12,12,45,6.40
2015,06,12,12,46,7.50
2015,06,12,12,47,9.50
2015,06,12,12,48,11.00
2015,06,12,12,49,11.00
2015,06,12,12,50,8.00
2015,06,12,12,51,10.30
2015,06,12,12,52,5.30
2015,06,12,12,53,2.90
2015,06,12,12,54,7.10
2015,06,12,12,55,4.70
2015,06,12,12,56,7.10
2015,06,12,12,57,7.80
2015,06,12,12,58,8.50
2015,06,12,12,59,6.60
2015,06,12,13,00,5.30
2015,06,12,13,01,7.50
2015,06,12,13,02,9.60
2015,06,12,13,03,8.60
2015,06,12,13,04,7.50
2015,06,12,13,05,6.20
2015,06,12,13,06,9.10
2015,06,12,13,07,8.70
2015,06,12,13,08,7.50
2015,06,12,13,09,8.90
2015,06,12,13,10,8.30
2015,06,12,13,11,5.70
2015,06,12,13,12,6.20
2015,06,12,13,13,7.30
2015,06,12,13,14,7.40
2015,06,12,13,15,5.70
2015,06,12,13,16,10.00
2015,06,12,13,17,10.10
2015,06,12,13,18,11.30
2015,06,12,13,19,9.40
2015,06,12,13,20,8.90
2015,06,12,13,21,7.90
2015,06,12,13,22,8.50
2015,06,12,13,23,10.20
2015,06,12,13,24,8.30
2015,06,12,13,25,10.60
2015,06,12,13,26,8.50
2015,06,12,13,27,6.60
2015,06,12,13,28,7.80
2015,06,12,13,29,9.10
2015,06,12,13,30,5.50
2015,06,12,13,31,8.10
2015,06,12,13,32,8.90
2015,06,12,13,33,8.70
2015,06,12,13,34,10.40
2015,06,12,13,35,8.90
2015,06,12,13,36,11.40
2015,06,12,13,37,8.80
2015,06,12,13,38,11.20
2015,06,12,13,39,6.40
2015,06,12,13,40,7.60
2015,06,12,13,41,9.00
2015,06,12,13,42,3.70
2015,06,12,13,43,6.80
2015,06,12,13,44,7.50
2015,06,12,13,45,6.60
2015,06,12,13,46,5.10
2015,06,12,13,47,7.00
2015,06,12,13,48,9.30
2015,06,12,13,49,5.60
2015,06,12,13,50,4.00
2015,06,12,13,51,10.20
2015,06,12,13,52,10.60
2015,06,12,13,53,11.60
2015,06,12,13,54,11.60
2015,06,12,13,55,8.00
2015,06,12,13,56,11.60
2015,06,12,13,57,6.90
2015,06,12,13,58,2.40
2015,06,12,13,59,6.10
2015,06,12,14,00,8.90
2015,06,12,14,01,10.10
2015,06,12,14,02,4.70
2015,06,12,14,03,6.70
2015,06,12,14,04,8.50
2015,06,12,14,05,9.60
2015,06,12,14,06,7.60
2015,06,12,14,07,8.70
2015,06,12,14,08,6.90
2015,06,12,14,09,8.90
2015,06,12,14,10,7.40
2015,06,12,14,11,10.00
2015,06,12,14,12,9.30
2015,06,12,14,13,10.40
2015,06,12,14,14,9.50
2015,06,12,14,15,11.40
2015,06,12,14,16,10.00
2015,06,12,14,17,10.50
2015,06,12,14,18,8.30
2015,06,12,14,19,6.40
2015,06,12,14,20,5.50
2015,06,12,14,21,4.40
2015,06,12,14,22,8.80
2015,06,12,14,23,4.40
2015,06,12,14,24,5.10
2015,06,12,14,25,8.60
2015,06,12,14,26,5.90
2015,06,12,14,27,8.60
2015,06,12,14,28,8.80
2015,06,12,14,29,8.70
2015,06,12,14,30,6.30
2015,06,12,14,31,5.70
2015,06,12,14,32,11.30
2015,06,12,14,33,7.40
2015,06,12,14,34,8.70
2015,06,12,14,35,5.90
2015,06,12,14,36,6.10
2015,06,12,14,37,7.20
2015,06,12,14,38,8.70
2015,06,12,14,39,10.10
2015,06,12,14,40,8.70
2015,06,12,14,41,5.60
2015,06,12,14,42,10.70
2015,06,12,14,43,9.40
2015,06,12,14,44,4.80
2015,06,12,14,45,8.30
2015,06,12,14,46,6.40
2015,06,12,14,47,11.30
2015,06,12,14,48,8.00
2015,06,12,14,49,8.00
2015,06,12,14,50,9.70
2015,06,12,14,51,6.70
2015,06,12,14,52,10.10
2015,06,12,14,53,8.90
2015,06,12,14,54,7.10
2015,06,12,14,55,6.20
2015,06,12,14,56,8.80
2015,06,12,14,57,5.50
2015,06,12,14,58,10.80
2015,06,12,14,59,11.30
2015,06,12,15,00,7.40
2015,06,12,15,01,8.90
2015,06,12,15,02,10.20
2015,06,12,15,03,8.70
2015,06,12,15,04,6.20
2015,06,12,15,05,7.50
2015,06,12,15,06,7.40
2015,06,12,15,07,8.90
2015,06,12,15,08,7.50
2015,06,12,15,09,7.00
2015,06,12,15,10,10.30
2015,06,12,15,11,12.10
2015,06,12,15,12,10.80
2015,06,12,15,13,8.80
2015,06,12,15,14,4.80
2015,06,12,15,15,2.90
2015,06,12,15,16,6.60
2015,06,12,15,17,7.90
2015,06,12,15,18,8.10
2015,06,12,15,19,8.90
2015,06,12,15,20,4.70
2015,06,12,15,21,6.80
2015,06,12,15,22,8.10
2015,06,12,15,23,5.70
2015,06,12,15,24,9.00
2015,06,12,15,25,10.30
2015,06,12,15,26,8.90
2015,06,12,15,27,11.30
2015,06,12,15,28,8.80
2015,06,12,15,29,8.60
2015,06,12,15,30,8.40
2015,06,12,15,31,12.20
2015,06,12,15,32,7.40
2015,06,12,15,33,8.80
2015,06,12,15,34,12.60
2015,06,12,15,35,9.30
2015,06,12,15,36,9.00
2015,06,12,15,37,9.70
2015,06,12,15,38,11.30
2015,06,12,15,39,11.70
2015,06,12,15,40,8.00
2015,06,12,15,41,8.20
2015,06,12,15,42,5.10
2015,06,12,15,43,4.70
2015,06,12,15,44,5.40
2015,06,12,15,45,8.20
2015,06,12,15,46,8.00
2015,06,12,15,47,4.90
2015,06,12,15,48,6.70
2015,06,12,15,49,8.70
2015,06,12,15,50,7.30
2015,06,12,15,51,3.70
2015,06,12,15,52,10.00
2015,06,12,15,53,6.60
2015,06,12,15,54,5.10
2015,06,12,15,55,8.60
2015,06,12,15,56,8.10
2015,06,12,15,57,4.40
2015,06,12,15,58,10.90
2015,06,12,15,59,5.50
2015,06,12,16,00,10.80
2015,06,12,16,01,8.70
2015,06,12,16,02,10.60
2015,06,12,16,03,6.50
2015,06,12,16,04,4.90
2015,06,12,16,05,6.70
2015,06,12,16,06,9.50
2015,06,12,16,07,7.60
2015,06,12,16,08,5.30
2015,06,12,16,09,5.70
2015,06,12,16,10,4.50
2015,06,12,16,11,5.50
2015,06,12,16,12,6.10
2015,06,12,16,13,5.80
2015,06,12,16,14,5.70
2015,06,12,16,15,4.30
2015,06,12,16,16,8.40
2015,06,12,16,17,8.30
2015,06,12,16,18,7.40
2015,06,12,16,19,7.80
2015,06,12,16,20,9.00
2015,06,12,16,21,8.00
2015,06,12,16,22,5.00
2015,06,12,16,23,6.40
2015,06,12,16,24,2.90
2015,06,12,16,25,7.10
2015,06,12,16,26,3.40
2015,06,12,16,27,5.80
2015,06,12,16,28,7.70
2015,06,12,16,29,6.40
2015,06,12,16,30,7.10
2015,06,12,16,31,5.80
2015,06,12,16,32,4.90
2015,06,12,16,33,3.30
2015,06,12,16,34,3.90
2015,06,12,16,35,5.20
2015,06,12,16,36,7.70
2015,06,12,16,37,5.50
2015,06,12,16,38,5.00
2015,06,12,16,39,2.20
2015,06,12,16,40,4.20
2015,06,12,16,41,5.60
2015,06,12,16,42,5.20
2015,06,12,16,43,6.90
2015,06,12,16,44,5.80
2015,06,12,16,45,7.10
2015,06,12,16,46,5.00
2015,06,12,16,47,4.50
2015,06,12,16,48,4.70
2015,06,12,16,49,5.70
2015,06,12,16,50,8.10
2015,06,12,16,51,3.60
2015,06,12,16,52,7.90
2015,06,12,16,53,7.00
2015,06,12,16,54,7.60
2015,06,12,16,55,7.30
2015,06,12,16,56,8.30
2015,06,12,16,57,7.80
2015,06,12,16,58,10.30
2015,06,12,16,59,7.40
2015,06,12,17,00,8.10
2015,06,12,17,01,8.90
2015,06,12,17,02,11.30
2015,06,12,17,03,7.40
2015,06,12,17,04,9.70
2015,06,12,17,05,6.80
2015,06,12,17,06,8.60
2015,06,12,17,07,6.40
2015,06,12,17,08,6.20
2015,06,12,17,09,7.00
2015,06,12,17,10,13.10
2015,06,12,17,11,14.30
2015,06,12,17,12,11.40
2015,06,12,17,13,10.40
2015,06,12,17,14,9.00
2015,06,12,17,15,8.40
2015,06,12,17,16,6.80
2015,06,12,17,17,8.90
2015,06,12,17,18,7.10
2015,06,12,17,19,5.60
2015,06,12,17,20,10.80
2015,06,12,17,21,12.30
2015,06,12,17,22,8.00
2015,06,12,17,23,7.80
2015,06,12,17,24,6.60
2015,06,12,17,25,6.10
2015,06,12,17,26,8.80
2015,06,12,17,27,3.90
2015,06,12,17,28,5.90
2015,06,12,17,29,4.40
2015,06,12,17,30,9.70
2015,06,12,17,31,6.70
2015,06,12,17,32,2.80
2015,06,12,17,33,8.90
2015,06,12,17,34,6.60
2015,06,12,17,35,3.40
2015,06,12,17,36,5.00
2015,06,12,17,37,12.80
2015,06,12,17,38,14.60
2015,06,12,17,39,9.50
2015,06,12,17,40,5.70
2015,06,12,17,41,9.10
2015,06,12,17,42,7.00
2015,06,12,17,43,7.00
2015,06,12,17,44,6.10
2015,06,12,17,45,9.20
2015,06,12,17,46,5.50
2015,06,12,17,47,8.30
2015,06,12,17,48,8.40
2015,06,12,17,49,9.60